PBO Station Position Time Series. Reference Frame : NAM14
Format Version,1.1.0
4-character ID,RAMT
Station name,RAMT_SCGN_CS2000
Begin Date, 2000-09-08
End Date, 2019-10-07
Release Date, 2019-10-08
Reference position, 35.3387143900 North Latitude, -117.6833503965 East Longitude, 1406.59869 meters elevation,
Date, North (mm), East (mm), Vertical (mm), North Std. Deviation (mm), East Std. Deviation (mm),              Vertical Std. Deviation (mm), Quality,
2000-09-08,0.00, 0.00, 0.00, 2.23, 1.78, 8.33, repro,
2000-09-09,0.35, -0.13, -1.26, 2.29, 1.84, 8.67, repro,
2000-09-10,-0.02, 0.79, -6.19, 2.29, 1.89, 8.72, repro,
2000-09-11,0.97, -0.28, -4.40, 2.27, 1.89, 8.57, repro,
2000-09-12,1.28, 0.07, -1.35, 2.23, 1.83, 8.40, repro,
2000-09-13,0.55, 0.33, -3.26, 2.26, 1.86, 8.48, repro,
2000-09-14,-1.03, 0.40, -5.75, 2.51, 1.99, 9.33, repro,
2000-09-15,0.60, 0.57, -4.02, 2.29, 1.90, 8.65, repro,
2000-09-16,-0.03, -0.62, -5.48, 2.08, 1.77, 8.04, repro,
2000-09-17,0.09, -0.83, -6.49, 2.23, 1.87, 8.52, repro,
2000-09-18,13.94, 70.01, -58.25, 61.51, 128.87, 311.94, repro,
2000-10-13,4.19, -0.50, -6.41, 8.98, 6.14, 29.36, repro,
2000-10-14,-0.15, -0.56, -2.39, 2.20, 1.82, 8.27, repro,
2000-10-15,-0.55, -1.10, -5.73, 2.33, 1.94, 8.67, repro,
2000-10-16,0.21, -0.85, -2.71, 2.12, 1.83, 8.02, repro,
2000-10-17,-0.65, -1.91, -2.88, 2.30, 1.90, 8.72, repro,
2000-10-18,0.54, 0.99, -4.41, 2.14, 1.81, 8.13, repro,
2000-10-19,-0.36, 0.19, -0.38, 2.28, 1.92, 9.11, repro,
2000-10-20,-0.22, -1.07, -5.61, 2.26, 1.87, 8.71, repro,
2000-10-21,0.55, -0.68, -4.00, 2.27, 1.90, 8.82, repro,
2000-10-22,-1.81, -0.63, -0.72, 2.33, 1.91, 9.03, repro,
2000-10-23,0.67, -1.07, 2.10, 2.19, 1.87, 8.72, repro,
2000-10-24,-0.32, -1.98, -3.46, 2.70, 2.22, 10.69, repro,
2000-10-25,0.69, -0.78, -4.14, 2.10, 1.83, 8.00, repro,
2000-10-26,1.50, -2.45, -0.22, 2.55, 2.15, 9.74, repro,
2000-10-27,-0.23, -2.39, 2.98, 3.01, 2.53, 11.87, repro,
2000-10-28,0.18, -3.95, -1.03, 2.96, 2.43, 11.44, repro,
2000-10-29,-0.79, -1.36, -2.15, 2.50, 2.17, 9.88, repro,
2000-10-30,-1.33, -0.88, -6.14, 3.14, 2.58, 12.41, repro,
2000-10-31,0.14, 0.06, -1.45, 2.44, 2.00, 9.40, repro,
2000-11-01,0.73, -2.18, -4.30, 2.39, 2.02, 9.31, repro,
2000-11-02,-0.30, -0.73, -1.05, 2.15, 1.90, 8.35, repro,
2000-11-03,-2.55, -3.53, -3.67, 2.76, 2.38, 10.40, repro,
2000-11-04,1.89, -1.35, -2.99, 2.39, 2.09, 9.13, repro,
2000-11-05,-0.39, -2.81, -3.35, 2.45, 2.07, 9.23, repro,
2000-11-06,-0.27, -2.86, -6.17, 2.52, 2.13, 9.84, repro,
2000-11-07,0.67, -3.06, 2.41, 2.93, 2.45, 11.23, repro,
2000-11-08,0.08, -1.35, -4.47, 2.30, 1.95, 8.68, repro,
2000-11-09,-0.90, -0.08, 4.06, 2.45, 1.99, 9.06, repro,
2000-11-10,1.83, 0.79, -7.70, 2.62, 2.12, 10.02, repro,
2000-11-11,1.12, 0.63, -3.56, 2.52, 2.13, 9.63, repro,
2000-11-12,-0.37, -1.42, -2.11, 2.51, 2.16, 9.81, repro,
2000-11-13,0.16, -1.11, -3.56, 2.38, 2.07, 8.99, repro,
2000-11-14,-1.87, -2.51, 2.92, 2.38, 2.13, 8.90, repro,
2000-11-15,-1.50, -0.26, -4.94, 2.37, 2.07, 9.15, repro,
2000-11-16,-0.48, -0.45, 3.34, 2.51, 2.11, 9.47, repro,
2000-11-17,-0.97, -0.98, -4.89, 2.36, 2.05, 8.89, repro,
2000-11-18,-0.14, -0.98, -5.07, 2.37, 2.04, 8.99, repro,
2000-11-19,-0.65, -0.48, -4.90, 2.47, 2.16, 9.36, repro,
2000-11-20,1.51, -1.37, -5.99, 2.51, 2.14, 9.64, repro,
2000-11-21,-0.15, -0.84, -11.42, 2.76, 2.43, 10.94, repro,
2000-11-22,-0.87, 0.23, -4.59, 2.62, 2.34, 10.34, repro,
2000-11-23,-0.78, -1.32, -5.68, 2.37, 1.99, 9.00, repro,
2000-11-24,-0.63, -1.58, -0.97, 2.36, 2.06, 9.07, repro,
2000-11-25,-0.72, -0.69, -3.95, 2.51, 2.29, 10.19, repro,
2000-11-26,-2.59, 0.92, -2.64, 3.64, 2.95, 13.94, repro,
2000-11-27,-0.07, -0.23, -6.60, 2.58, 2.38, 10.33, repro,
2000-11-28,-0.57, -1.22, -9.35, 2.54, 2.21, 10.03, repro,
2000-11-29,-1.25, -0.77, -8.96, 2.61, 2.38, 10.22, repro,
2000-11-30,-1.21, -0.39, -6.42, 2.48, 2.19, 9.74, repro,
2000-12-01,-0.54, -0.98, -9.26, 2.93, 2.54, 11.15, repro,
2000-12-02,-3.00, -0.13, -13.05, 3.30, 2.81, 13.10, repro,
2000-12-03,1.53, 0.85, -8.61, 2.81, 2.37, 11.13, repro,
2000-12-04,-1.96, -2.03, -12.56, 2.95, 2.48, 11.52, repro,
2000-12-05,-2.35, -2.07, -3.66, 2.77, 2.35, 10.82, repro,
2000-12-06,-2.33, -1.52, 2.49, 2.65, 2.15, 10.02, repro,
2000-12-07,0.12, -1.12, -9.16, 3.51, 2.98, 13.56, repro,
2000-12-08,-0.31, -1.58, -8.11, 2.79, 2.47, 10.95, repro,
2000-12-09,-0.68, -1.25, -10.00, 2.69, 2.29, 10.16, repro,
2000-12-10,0.01, -0.28, -13.39, 2.78, 2.37, 10.41, repro,
2000-12-11,-2.14, -0.39, -5.67, 2.48, 2.21, 9.79, repro,
2000-12-12,-4.25, 3.62, -6.65, 3.07, 2.56, 11.81, repro,
2000-12-13,-1.38, 0.81, -12.25, 2.44, 2.05, 9.27, repro,
2000-12-14,-0.90, 0.60, -14.40, 2.34, 2.01, 9.02, repro,
2000-12-15,-1.23, -0.89, -5.32, 2.80, 2.31, 10.40, repro,
2000-12-16,-1.23, 0.24, -11.21, 2.35, 2.00, 8.91, repro,
2000-12-17,-2.26, -0.51, -4.15, 2.55, 2.26, 10.13, repro,
2000-12-18,-0.46, -0.49, -18.97, 2.53, 2.15, 9.75, repro,
2000-12-19,-0.15, -1.03, -15.87, 2.77, 2.30, 10.70, repro,
2000-12-20,-0.05, -0.54, -14.83, 2.53, 2.21, 9.88, repro,
2000-12-21,-1.21, -0.29, -16.65, 2.58, 2.15, 9.84, repro,
2000-12-22,-0.12, -0.99, -15.80, 2.39, 2.04, 8.97, repro,
2000-12-23,-1.12, -2.35, -14.30, 2.40, 2.11, 9.20, repro,
2000-12-24,-1.41, -1.40, -16.90, 2.39, 2.05, 9.07, repro,
2000-12-25,-0.60, -1.27, -15.18, 2.44, 2.14, 9.55, repro,
2000-12-26,-1.61, -1.73, -14.08, 2.60, 2.24, 10.05, repro,
2000-12-27,-1.15, -0.77, -18.83, 2.59, 2.25, 10.25, repro,
2000-12-28,-0.84, -0.76, -18.21, 2.62, 2.28, 10.08, repro,
2000-12-29,-1.61, -1.66, -14.98, 2.49, 2.18, 9.78, repro,
2000-12-30,-2.69, -1.86, -14.66, 2.55, 2.23, 10.26, repro,
2000-12-31,-1.72, -2.84, -14.06, 2.82, 2.56, 11.73, repro,
2001-01-01,-1.02, -3.06, -8.29, 2.91, 2.55, 12.22, repro,
2001-01-02,-2.23, -1.21, -13.93, 2.75, 2.51, 11.86, repro,
2001-01-03,-0.94, -2.64, -9.37, 2.60, 2.37, 10.37, repro,
2001-01-04,-1.14, -1.57, -15.41, 2.64, 2.39, 10.44, repro,
2001-01-05,-1.24, -2.63, -8.38, 2.66, 2.46, 10.49, repro,
2001-01-06,-1.85, -2.34, -0.78, 2.88, 2.63, 11.17, repro,
2001-01-07,-0.82, -2.91, -6.55, 2.70, 2.36, 10.53, repro,
2001-01-08,-0.76, -3.35, -1.69, 4.17, 3.99, 16.48, repro,
2001-01-09,-2.22, -0.19, -16.46, 4.82, 4.03, 18.62, repro,
2001-01-10,-2.60, -3.23, 0.70, 2.91, 2.49, 11.26, repro,
2001-01-11,-3.08, -4.88, -13.87, 4.53, 4.11, 17.55, repro,
2001-01-12,-0.70, -1.88, -10.36, 3.64, 3.21, 13.83, repro,
2001-01-13,-3.36, -4.29, -8.47, 4.01, 3.27, 15.44, repro,
2001-01-14,-1.08, -1.79, -8.17, 2.84, 2.45, 10.97, repro,
2001-02-24,-2.28, -1.14, -0.47, 3.07, 2.60, 11.56, repro,
2001-02-25,-5.08, -5.58, -18.69, 5.25, 4.89, 20.84, repro,
2001-02-26,-2.46, -5.39, -19.45, 3.93, 3.59, 15.68, repro,
2001-02-27,-4.36, -4.55, -7.52, 4.04, 3.62, 16.63, repro,
2001-02-28,-3.26, -2.90, -5.19, 3.23, 2.94, 13.88, repro,
2001-03-01,-2.57, -2.51, -7.12, 3.19, 3.01, 12.61, repro,
2001-03-02,-2.92, -2.73, -9.08, 2.98, 2.88, 11.21, repro,
2001-03-03,-1.11, -4.15, -7.50, 2.56, 2.34, 9.83, repro,
2001-03-04,-1.07, -4.57, -7.16, 2.81, 2.62, 11.31, repro,
2001-03-05,-2.88, -3.11, -18.85, 3.70, 3.59, 15.55, repro,
2001-03-06,0.73, -4.17, 1.29, 2.90, 2.78, 12.18, repro,
2001-03-07,-3.28, -4.89, -8.85, 3.53, 3.19, 13.96, repro,
2001-03-08,-3.05, -3.44, 4.60, 2.73, 2.46, 10.91, repro,
2001-03-09,-2.02, -4.08, -3.16, 2.97, 2.70, 11.92, repro,
2001-03-10,-2.21, -2.57, -0.53, 3.10, 3.03, 12.45, repro,
2001-03-11,-0.38, -3.56, 0.87, 2.86, 2.72, 11.37, repro,
2001-03-12,-0.63, -4.14, 4.36, 2.88, 2.82, 11.79, repro,
2001-03-13,0.56, -5.60, -0.10, 2.73, 2.70, 11.54, repro,
2001-03-14,-0.50, -3.45, 0.91, 2.72, 2.59, 10.88, repro,
2001-03-15,0.11, -3.67, -3.46, 2.60, 2.40, 10.06, repro,
2001-03-16,-0.24, -3.66, -1.87, 2.67, 2.45, 10.44, repro,
2001-03-17,-2.19, -3.16, -10.49, 2.62, 2.47, 10.01, repro,
2001-03-18,-0.89, -3.07, -13.73, 2.51, 2.23, 9.62, repro,
2001-03-19,-1.03, -3.20, -13.53, 2.45, 2.22, 9.53, repro,
2001-03-20,-1.52, -2.75, -11.37, 2.47, 2.25, 9.64, repro,
2001-03-21,-1.61, -2.24, -8.91, 2.52, 2.35, 10.10, repro,
2001-03-22,-2.90, -2.89, -4.79, 2.51, 2.29, 9.85, repro,
2001-03-23,-3.90, -1.92, -1.90, 2.66, 2.42, 10.28, repro,
2001-03-24,-2.77, -2.27, -6.99, 2.61, 2.35, 10.13, repro,
2001-03-25,-4.71, -2.21, -4.39, 2.70, 2.44, 10.59, repro,
2001-03-26,-0.06, -3.62, -6.59, 2.90, 2.57, 11.05, repro,
2001-03-27,-1.25, -3.10, -8.73, 2.74, 2.42, 10.70, repro,
2001-03-28,-1.72, -4.12, -2.76, 2.71, 2.43, 10.56, repro,
2001-03-29,-0.75, -2.60, -8.45, 2.61, 2.37, 10.03, repro,
2001-03-30,-3.23, -3.30, -11.30, 2.70, 2.35, 10.32, repro,
2001-03-31,-0.39, -2.22, -12.69, 2.61, 2.39, 10.09, repro,
2001-04-01,-0.09, -2.58, -9.17, 2.54, 2.31, 9.82, repro,
2001-04-02,-1.88, 0.46, -4.12, 2.60, 2.35, 10.02, repro,
2001-04-03,-1.05, -1.73, -5.51, 2.90, 2.59, 10.64, repro,
2001-04-04,-2.14, -0.75, 8.78, 3.08, 2.90, 12.09, repro,
2001-04-05,7.06, -4.02, -5.12, 6.55, 7.25, 31.94, repro,
2001-04-25,-3.36, -0.51, 4.83, 6.20, 6.20, 25.91, repro,
2001-04-26,-7.12, -0.12, -14.17, 5.86, 5.47, 24.85, repro,
2001-05-04,4.75, 0.44, -11.45, 5.95, 5.30, 23.55, repro,
2001-05-05,-0.91, -1.97, -7.06, 2.03, 1.74, 7.88, repro,
2001-05-06,-0.82, -1.87, -6.15, 1.99, 1.75, 7.87, repro,
2001-05-07,-1.76, -1.94, -8.79, 2.02, 1.74, 7.71, repro,
2001-05-08,-2.11, -2.64, -5.76, 2.00, 1.74, 7.67, repro,
2001-05-09,-0.72, -3.21, -4.28, 2.02, 1.72, 7.78, repro,
2001-05-10,-3.35, -2.95, -9.17, 2.03, 1.77, 7.96, repro,
2001-05-11,-1.02, -0.75, -5.43, 2.09, 1.79, 8.12, repro,
2001-05-12,-1.53, -2.39, 1.45, 2.05, 1.78, 7.90, repro,
2001-05-13,-0.88, -1.82, -6.92, 2.08, 1.81, 7.98, repro,
2001-05-14,-2.10, -1.82, -7.69, 1.98, 1.70, 7.71, repro,
2001-05-15,-0.93, -1.62, -2.11, 2.00, 1.73, 7.83, repro,
2001-05-16,-0.97, -3.74, -2.02, 2.14, 1.87, 8.36, repro,
2001-05-17,-1.07, -2.33, 2.38, 2.10, 1.88, 8.26, repro,
2001-05-18,-0.69, -3.46, -1.47, 2.01, 1.69, 7.72, repro,
2001-05-19,-0.60, -2.92, -2.21, 2.00, 1.70, 7.72, repro,
2001-05-20,-1.13, -2.43, -2.81, 2.00, 1.70, 7.72, repro,
2001-05-21,-1.07, -1.83, -0.16, 2.02, 1.71, 7.74, repro,
2001-05-22,-0.80, -2.68, 2.64, 2.12, 1.91, 8.41, repro,
2001-05-23,1.28, -2.38, 8.56, 2.00, 1.71, 7.77, repro,
2001-05-24,-0.82, -1.24, 1.54, 1.99, 1.69, 7.64, repro,
2001-05-25,-0.88, -2.41, -4.00, 2.01, 1.75, 7.88, repro,
2001-05-26,-1.24, -1.40, -4.17, 2.00, 1.72, 7.80, repro,
2001-05-27,-1.40, -1.94, 5.59, 2.10, 1.78, 8.18, repro,
2001-05-28,-1.24, -2.04, 3.30, 2.11, 1.83, 8.26, repro,
2001-05-29,-0.53, -2.66, -3.61, 2.06, 1.73, 7.93, repro,
2001-05-30,-1.81, -3.85, -4.28, 2.08, 1.79, 8.19, repro,
2001-05-31,-0.94, -2.06, -4.64, 2.02, 1.71, 7.74, repro,
2001-06-01,-1.21, -2.25, -1.18, 2.01, 1.72, 7.73, repro,
2001-06-02,-2.22, 0.77, 7.66, 2.12, 1.92, 8.31, repro,
2001-06-03,-1.71, -2.76, 7.66, 2.06, 1.79, 8.06, repro,
2001-06-04,-2.95, -2.26, 3.98, 2.04, 1.76, 7.84, repro,
2001-06-05,-1.92, -2.57, 9.14, 2.06, 1.84, 8.24, repro,
2001-06-06,-1.52, -2.81, -9.03, 2.08, 1.82, 8.35, repro,
2001-06-07,-1.07, -2.98, -2.91, 2.09, 1.88, 8.26, repro,
2001-06-08,-0.88, -2.38, -5.73, 2.13, 1.86, 8.53, repro,
2001-06-09,-1.50, -2.78, 2.24, 2.09, 1.73, 7.91, repro,
2001-06-10,-1.20, -1.09, -1.25, 2.05, 1.74, 7.97, repro,
2001-06-11,-0.79, -1.49, 0.40, 2.07, 1.79, 8.19, repro,
2001-06-12,-2.40, 0.70, -1.38, 2.10, 1.76, 8.09, repro,
2001-06-13,-2.14, -3.46, 2.65, 2.07, 1.79, 8.04, repro,
2001-06-14,-1.43, -2.45, -1.20, 2.09, 1.75, 8.05, repro,
2001-06-15,-1.14, -2.45, -5.55, 2.07, 1.77, 7.92, repro,
2001-06-16,-0.04, -2.29, -4.86, 2.09, 1.82, 8.35, repro,
2001-06-17,-1.81, -1.85, -12.08, 2.10, 1.79, 8.06, repro,
2001-06-18,-2.04, -2.16, -4.71, 2.06, 1.76, 8.00, repro,
2001-06-19,-1.18, -2.35, -4.73, 2.07, 1.75, 7.83, repro,
2001-06-20,-1.15, -2.21, -2.01, 2.10, 1.77, 8.06, repro,
2001-06-21,-0.75, -2.20, -3.25, 2.05, 1.76, 7.83, repro,
2001-06-22,-1.21, -2.27, -4.17, 2.01, 1.72, 7.67, repro,
2001-06-23,-1.39, -1.97, -10.01, 2.13, 1.89, 8.44, repro,
2001-06-24,-1.52, -2.78, -0.16, 2.09, 1.86, 7.99, repro,
2001-06-25,-2.09, -1.94, -4.01, 2.00, 1.70, 7.67, repro,
2001-06-26,-1.13, -2.39, -1.57, 1.99, 1.70, 7.65, repro,
2001-06-27,-1.41, -2.89, -7.92, 2.05, 1.80, 8.03, repro,
2001-06-28,-1.61, -1.83, -10.91, 1.97, 1.69, 7.52, repro,
2001-06-29,-0.23, -1.18, -6.74, 2.01, 1.76, 7.84, repro,
2001-06-30,-0.80, -1.81, -1.34, 1.97, 1.68, 7.52, repro,
2001-07-01,-0.34, -3.02, -3.65, 1.99, 1.72, 7.76, repro,
2001-07-02,-1.47, -1.87, -8.94, 1.99, 1.71, 7.60, repro,
2001-07-03,0.76, -2.09, -6.51, 1.99, 1.75, 7.70, repro,
2001-07-04,-2.51, -1.48, -9.15, 1.99, 1.76, 7.78, repro,
2001-07-05,0.02, -1.72, -5.46, 1.99, 1.70, 7.60, repro,
2001-07-06,-2.54, -2.13, 3.05, 2.01, 1.71, 7.69, repro,
2001-07-07,0.92, -2.62, -13.72, 2.03, 1.80, 7.93, repro,
2001-07-08,1.01, -2.19, -5.52, 2.02, 1.73, 7.72, repro,
2001-07-09,-0.08, -2.28, -16.60, 1.98, 1.70, 7.57, repro,
2001-07-10,-1.07, -1.61, -9.88, 2.12, 1.85, 8.29, repro,
2001-07-11,-0.80, -1.52, -9.42, 2.00, 1.70, 7.64, repro,
2001-07-12,-0.93, -3.40, -9.76, 2.13, 1.77, 8.15, repro,
2001-07-13,-1.03, -2.97, -10.47, 2.11, 1.81, 8.13, repro,
2001-07-14,-1.61, -3.89, -4.70, 2.06, 1.82, 8.04, repro,
2001-07-15,-1.47, -1.73, -7.76, 2.02, 1.75, 7.79, repro,
2001-07-16,-0.76, -2.78, -6.80, 2.00, 1.74, 7.76, repro,
2001-07-17,-1.06, -2.62, -5.12, 1.97, 1.69, 7.62, repro,
2001-07-18,-1.48, -2.76, -6.38, 2.02, 1.74, 7.71, repro,
2001-07-19,-0.88, -2.22, -12.80, 1.99, 1.70, 7.63, repro,
2001-07-20,0.30, -2.08, -10.51, 2.10, 1.81, 8.08, repro,
2001-07-21,-0.42, -1.73, -7.50, 2.00, 1.75, 7.77, repro,
2001-07-22,-1.57, -3.59, -6.61, 1.99, 1.70, 7.61, repro,
2001-07-23,-0.17, -2.71, -7.04, 2.05, 1.80, 7.95, repro,
2001-07-24,0.27, -1.13, -5.73, 2.05, 1.74, 7.76, repro,
2001-07-25,0.23, -2.24, -2.23, 2.05, 1.79, 7.95, repro,
2001-07-26,-1.41, -2.15, -7.90, 2.08, 1.77, 7.97, repro,
2001-07-27,0.36, -1.38, -10.92, 2.09, 1.86, 8.09, repro,
2001-07-28,-0.06, -3.81, -8.73, 2.08, 1.80, 7.91, repro,
2001-07-29,-0.45, -2.29, -13.35, 2.08, 1.81, 7.93, repro,
2001-07-30,-0.17, -1.39, -4.38, 2.23, 1.87, 8.37, repro,
2001-07-31,-0.27, -0.36, -3.32, 2.08, 1.83, 7.94, repro,
2001-08-01,-0.06, -2.75, -5.19, 2.05, 1.76, 7.82, repro,
2001-08-02,-0.34, -1.68, -9.68, 2.10, 1.81, 7.90, repro,
2001-08-03,0.12, -2.05, -1.73, 2.07, 1.75, 7.88, repro,
2001-08-04,0.09, -1.40, -2.59, 2.18, 1.89, 8.30, repro,
2001-08-05,1.04, -2.61, -8.45, 2.16, 1.84, 8.14, repro,
2001-08-06,0.68, -2.10, -1.23, 2.15, 1.82, 8.09, repro,
2001-08-07,-0.89, -2.88, -6.06, 2.18, 1.84, 8.16, repro,
2001-08-08,0.99, -5.15, -9.52, 2.15, 1.88, 8.25, repro,
2001-08-09,1.25, -3.43, -5.62, 2.18, 1.89, 8.31, repro,
2001-08-10,0.01, -2.44, -5.24, 2.29, 1.96, 8.62, repro,
2001-08-11,0.32, -1.52, -6.25, 2.14, 1.78, 8.10, repro,
2001-08-12,-0.64, -2.63, -2.94, 2.04, 1.70, 7.74, repro,
2001-08-13,-1.02, -1.88, -9.84, 2.12, 1.76, 8.07, repro,
2001-08-14,-0.85, -2.11, -0.74, 2.13, 1.82, 7.92, repro,
2001-08-15,-0.91, -2.48, -8.74, 2.21, 1.90, 8.27, repro,
2001-08-16,0.84, -1.82, -8.50, 2.16, 1.79, 8.14, repro,
2001-08-17,-0.48, -1.84, -8.09, 2.16, 1.82, 8.07, repro,
2001-08-18,0.08, -2.39, -7.81, 2.16, 1.82, 8.01, repro,
2001-08-19,1.19, -2.52, -0.07, 2.73, 2.46, 10.50, repro,
2001-08-20,2.49, -2.75, -6.59, 2.30, 1.86, 8.38, repro,
2001-08-21,0.87, -2.43, -4.77, 2.36, 1.92, 8.64, repro,
2001-08-22,-1.53, -0.68, -4.46, 2.19, 1.87, 8.29, repro,
2001-08-23,-1.08, -2.98, -8.38, 2.19, 1.80, 8.22, repro,
2001-08-24,1.57, -3.47, 0.95, 2.20, 1.82, 8.15, repro,
2001-08-25,0.81, -1.11, -0.94, 2.12, 1.78, 8.13, repro,
2001-08-26,0.48, -1.69, -5.42, 2.34, 1.95, 8.78, repro,
2001-08-27,0.81, -2.43, -5.65, 2.16, 1.80, 8.18, repro,
2001-08-28,-0.62, -3.04, 0.68, 2.39, 2.02, 8.89, repro,
2001-08-29,-0.53, -1.95, -4.76, 2.29, 1.87, 8.40, repro,
2001-08-30,-0.52, -2.62, -13.96, 2.25, 1.82, 8.26, repro,
2001-08-31,1.21, -1.10, 1.01, 2.45, 1.98, 8.85, repro,
2001-09-01,0.75, -2.52, -5.53, 2.14, 1.77, 8.11, repro,
2001-09-02,0.79, -2.80, -1.05, 2.16, 1.84, 8.10, repro,
2001-09-03,0.39, -3.31, 0.20, 2.20, 1.82, 8.34, repro,
2001-09-04,2.25, -4.08, -9.10, 2.21, 1.88, 8.47, repro,
2001-09-05,-0.55, -0.46, 6.66, 2.36, 2.06, 9.03, repro,
2001-09-06,-1.42, -1.09, -1.94, 2.15, 1.83, 8.23, repro,
2001-09-07,-0.05, -1.57, -5.12, 2.05, 1.73, 7.83, repro,
2001-09-08,-0.01, -2.01, -2.57, 2.06, 1.78, 7.93, repro,
2001-09-09,-0.65, -2.09, -1.62, 2.09, 1.79, 7.91, repro,
2001-09-10,0.29, -2.27, -4.35, 2.00, 1.68, 7.70, repro,
2001-09-11,0.25, -0.75, -3.88, 2.07, 1.82, 7.94, repro,
2001-09-12,-0.40, -2.94, -5.45, 2.12, 1.88, 8.32, repro,
2001-09-13,-0.28, -2.03, 3.68, 2.04, 1.74, 7.80, repro,
2001-09-14,0.08, -1.77, -11.33, 2.02, 1.71, 7.68, repro,
2001-09-15,0.55, -2.02, -3.23, 2.11, 1.87, 8.25, repro,
2001-09-16,1.68, -2.42, -0.80, 2.03, 1.73, 7.77, repro,
2001-09-17,-1.18, -2.31, 1.95, 2.03, 1.72, 7.74, repro,
2001-09-18,-0.20, -2.06, -4.61, 2.04, 1.77, 7.87, repro,
2001-09-19,0.83, -2.14, -1.00, 2.04, 1.76, 7.82, repro,
2001-09-20,-0.39, -2.78, -1.76, 2.10, 1.80, 8.00, repro,
2001-09-21,0.30, -2.36, -4.75, 2.04, 1.74, 7.84, repro,
2001-09-22,0.44, -1.52, -0.72, 2.03, 1.73, 7.91, repro,
2001-09-23,-0.87, -2.09, -6.03, 2.08, 1.79, 8.02, repro,
2001-09-24,0.29, -2.20, -3.31, 2.04, 1.72, 7.80, repro,
2001-09-25,-0.88, -2.68, 1.79, 2.05, 1.73, 7.82, repro,
2001-09-26,0.35, -1.58, -0.90, 2.03, 1.73, 7.82, repro,
2001-09-27,0.59, -1.53, 2.74, 2.09, 1.87, 8.27, repro,
2001-09-28,0.13, -2.41, 0.30, 2.08, 1.79, 8.05, repro,
2001-09-29,0.77, -1.99, -0.08, 2.10, 1.91, 8.20, repro,
2001-09-30,1.23, -1.72, 0.53, 2.01, 1.66, 7.59, repro,
2001-10-01,-0.08, -2.30, -10.08, 2.04, 1.73, 7.73, repro,
2001-10-02,1.39, -2.46, -3.02, 2.03, 1.71, 7.74, repro,
2001-10-03,1.03, -2.20, -0.41, 2.13, 1.78, 8.10, repro,
2001-10-04,0.30, -1.94, -9.18, 2.45, 1.88, 8.96, repro,
2001-10-05,0.98, -1.54, 1.88, 2.14, 1.72, 7.97, repro,
2001-10-06,0.34, -1.49, -5.60, 2.09, 1.79, 7.95, repro,
2001-10-07,0.36, -2.14, -0.34, 2.19, 1.82, 8.26, repro,
2001-10-08,-1.72, -2.51, -2.26, 2.16, 1.78, 8.37, repro,
2001-10-09,-0.62, -4.03, 3.66, 2.07, 1.69, 7.92, repro,
2001-10-10,-0.32, -2.24, -9.73, 2.10, 1.74, 8.05, repro,
2001-10-11,1.44, -2.63, 2.33, 2.03, 1.73, 7.87, repro,
2001-10-12,-0.02, -0.14, -1.99, 2.14, 1.78, 8.17, repro,
2001-10-13,0.95, -2.13, 2.74, 2.14, 1.85, 8.08, repro,
2001-10-14,1.24, -2.62, 1.24, 2.11, 1.78, 8.02, repro,
2001-10-15,0.19, -3.32, -3.31, 2.22, 1.87, 8.47, repro,
2001-10-16,0.46, -2.55, -4.01, 2.19, 1.83, 8.25, repro,
2001-10-17,0.25, -1.43, -2.27, 2.45, 1.95, 8.98, repro,
2001-10-18,2.02, -1.84, 1.16, 2.19, 1.75, 8.35, repro,
2001-10-19,1.10, -2.64, -8.00, 2.39, 1.94, 8.85, repro,
2001-10-20,1.01, -2.67, 2.02, 2.26, 1.86, 8.62, repro,
2001-10-21,-0.42, -1.62, 11.39, 2.27, 1.88, 8.54, repro,
2001-10-22,-0.72, -2.46, -1.63, 2.12, 1.84, 8.06, repro,
2001-10-23,-0.13, -1.24, -0.41, 2.24, 1.85, 8.50, repro,
2001-10-24,-0.53, -2.37, 3.26, 2.44, 1.92, 9.01, repro,
2001-10-25,-0.03, -3.19, -4.97, 2.45, 2.09, 9.15, repro,
2001-10-26,1.08, -3.13, -2.29, 2.32, 1.92, 8.70, repro,
2001-10-27,2.92, -1.79, -0.19, 2.14, 1.78, 8.15, repro,
2001-10-28,2.04, -2.87, -6.64, 2.23, 1.90, 8.44, repro,
2001-10-29,0.83, -2.74, -2.49, 2.20, 1.89, 8.48, repro,
2001-10-30,-0.14, -2.96, -3.22, 2.15, 1.82, 8.19, repro,
2001-10-31,-0.13, -0.91, 5.13, 2.16, 1.81, 8.18, repro,
2001-11-01,-0.89, -1.17, 4.71, 2.12, 1.83, 8.26, repro,
2001-11-02,0.39, -2.86, 2.34, 2.13, 1.82, 8.02, repro,
2001-11-03,0.76, -2.04, -2.16, 2.27, 1.95, 8.57, repro,
2001-11-04,-1.06, -1.98, -8.18, 2.23, 1.88, 8.32, repro,
2001-11-05,0.82, -2.94, 5.33, 2.43, 2.09, 9.21, repro,
2001-11-06,-0.03, -2.50, 0.54, 2.28, 1.95, 8.63, repro,
2001-11-07,-1.54, -1.66, -2.07, 2.22, 1.87, 8.43, repro,
2001-11-08,0.92, -2.63, -9.85, 2.24, 1.88, 8.60, repro,
2001-11-09,1.50, -3.35, -2.03, 2.35, 1.98, 9.44, repro,
2001-11-10,-1.25, -3.40, -13.36, 2.37, 2.08, 9.37, repro,
2001-11-11,1.57, -1.90, -5.66, 2.16, 1.73, 8.21, repro,
2001-11-12,0.63, -0.02, -2.19, 2.18, 1.83, 8.23, repro,
2001-11-13,-0.19, -2.39, 3.27, 2.28, 1.85, 8.67, repro,
2001-11-14,0.87, -0.94, -4.91, 2.15, 1.75, 8.22, repro,
2001-11-15,-0.56, -1.86, -1.24, 2.16, 1.84, 8.16, repro,
2001-11-16,-1.27, -2.35, 0.55, 2.18, 1.90, 8.38, repro,
2001-11-17,0.90, -1.14, -4.65, 2.10, 1.78, 8.08, repro,
2001-11-18,0.30, -1.58, -12.66, 2.09, 1.82, 8.03, repro,
2001-11-19,-0.04, -2.18, -11.46, 2.15, 1.83, 8.43, repro,
2001-11-20,1.20, -0.86, -3.27, 2.37, 2.08, 9.44, repro,
2001-11-21,-1.47, -1.69, 3.39, 2.26, 2.02, 8.93, repro,
2001-11-22,-3.24, -0.89, 2.40, 2.15, 1.91, 8.65, repro,
2001-11-23,-1.91, -0.60, -5.05, 2.32, 1.98, 9.18, repro,
2001-11-24,-0.97, -4.00, 6.64, 2.45, 2.08, 9.79, repro,
2001-11-25,-1.99, -1.53, -5.95, 2.46, 2.18, 9.85, repro,
2001-11-26,-0.31, -1.61, -12.13, 2.16, 1.85, 8.48, repro,
2001-11-27,-3.05, -1.09, -7.22, 2.17, 1.84, 8.74, repro,
2001-11-28,-0.64, -1.42, -3.59, 2.09, 1.79, 8.24, repro,
2001-11-29,-0.10, -2.74, 2.86, 2.09, 1.70, 7.95, repro,
2001-11-30,0.83, -1.92, -11.03, 2.23, 1.96, 8.83, repro,
2001-12-01,-0.63, -1.78, -9.82, 2.11, 1.83, 8.34, repro,
2001-12-02,-0.53, -3.05, 1.10, 2.23, 1.93, 8.74, repro,
2001-12-03,-1.37, -3.48, -8.55, 2.13, 1.82, 8.29, repro,
2001-12-04,-0.61, -1.70, -9.38, 2.13, 1.80, 8.18, repro,
2001-12-05,-0.03, -1.78, -12.72, 2.14, 1.79, 8.19, repro,
2001-12-06,0.23, -3.75, -11.92, 2.22, 1.91, 8.60, repro,
2001-12-07,-0.04, -1.90, -12.44, 2.12, 1.85, 8.34, repro,
2001-12-08,0.29, -2.68, -10.36, 2.20, 1.89, 8.55, repro,
2001-12-09,-0.23, -2.38, -0.96, 2.09, 1.79, 8.08, repro,
2001-12-10,-0.70, -0.98, -4.90, 2.15, 1.89, 8.45, repro,
2001-12-11,-0.16, -2.44, -5.04, 2.25, 1.98, 8.85, repro,
2001-12-12,-1.49, -2.00, -6.13, 2.30, 1.91, 8.95, repro,
2001-12-13,-0.31, -2.65, -9.10, 2.22, 1.87, 8.67, repro,
2001-12-14,-1.69, -1.16, 4.88, 2.10, 1.82, 8.26, repro,
2001-12-15,-0.99, -1.15, -5.88, 2.10, 1.82, 8.18, repro,
2001-12-16,0.18, -2.33, -13.65, 2.12, 1.85, 8.24, repro,
2001-12-17,-0.20, -1.96, -16.42, 2.09, 1.80, 7.99, repro,
2001-12-18,0.95, -2.10, -5.47, 2.08, 1.85, 8.13, repro,
2001-12-19,-0.33, -1.81, -11.35, 2.11, 1.80, 8.13, repro,
2001-12-20,0.29, -1.82, -11.43, 2.11, 1.76, 8.03, repro,
2001-12-21,-0.79, -2.19, -13.52, 2.07, 1.80, 8.00, repro,
2001-12-22,-0.37, -2.65, -13.43, 2.18, 1.89, 8.48, repro,
2001-12-23,-1.73, -1.45, -15.87, 2.08, 1.81, 7.97, repro,
2001-12-24,0.04, -3.04, -20.59, 2.35, 2.27, 9.61, repro,
2001-12-25,-1.03, -2.05, -13.32, 2.12, 1.81, 8.22, repro,
2001-12-26,-0.45, -2.93, -11.32, 2.05, 1.79, 7.90, repro,
2001-12-27,-0.78, -1.67, -10.63, 2.20, 1.81, 8.44, repro,
2001-12-28,-0.80, -3.05, -7.21, 2.07, 1.76, 7.89, repro,
2001-12-29,-2.28, -1.93, -6.10, 2.04, 1.75, 7.77, repro,
2001-12-30,-0.74, -2.86, -13.27, 2.08, 1.88, 8.25, repro,
2001-12-31,-1.22, -2.18, -7.47, 2.19, 1.89, 8.48, repro,
2002-01-01,-1.80, -3.70, -9.66, 2.19, 2.03, 8.72, repro,
2002-01-02,-0.62, -4.11, -8.59, 2.21, 1.91, 8.55, repro,
2002-01-03,0.86, -2.74, -5.77, 2.15, 1.84, 8.19, repro,
2002-01-04,-0.46, -3.04, -7.31, 2.18, 1.91, 8.52, repro,
2002-01-05,-0.54, -4.34, -9.84, 2.19, 2.03, 8.68, repro,
2002-01-06,0.52, -4.81, -8.97, 2.13, 1.86, 8.30, repro,
2002-01-07,-0.10, -3.23, -17.23, 2.15, 1.88, 8.42, repro,
2002-01-08,-0.29, -2.60, -12.69, 2.31, 1.99, 9.21, repro,
2002-01-09,0.52, -2.96, -7.46, 2.09, 1.79, 8.03, repro,
2002-01-10,-0.93, -2.61, -12.83, 2.17, 1.91, 8.46, repro,
2002-01-11,-0.91, -4.49, -2.82, 2.17, 1.87, 8.58, repro,
2002-01-12,-0.56, -3.61, -17.73, 2.18, 1.89, 8.42, repro,
2002-01-13,-0.01, -4.08, -0.99, 2.50, 2.14, 9.86, repro,
2002-01-14,-0.05, -3.05, -9.68, 2.16, 1.90, 8.36, repro,
2002-01-15,-2.03, -2.03, -12.09, 2.10, 1.90, 8.34, repro,
2002-01-16,-2.15, -3.59, -7.01, 2.24, 2.04, 9.12, repro,
2002-01-17,-0.93, -2.86, -10.38, 2.06, 1.90, 8.11, repro,
2002-01-18,-0.35, -5.35, -12.93, 2.17, 2.00, 8.32, repro,
2002-01-19,-0.43, -3.73, -9.99, 2.16, 2.00, 8.26, repro,
2002-01-20,-1.47, -4.06, -10.84, 2.04, 1.81, 7.88, repro,
2002-01-21,0.06, -3.93, -6.02, 2.02, 1.79, 7.70, repro,
2002-01-22,-0.59, -3.21, -14.07, 2.24, 2.03, 8.75, repro,
2002-01-23,-1.57, -4.05, -15.81, 2.09, 1.91, 8.10, repro,